Weather History for MRLB - March, 2013

Change the Weather History Date:

Sunday, March 17, 2013

  Actual Average Record
Temperature  
Mean Temperature 82 °F -  
Max Temperature 96 °F 93 °F 98 °F (1998)
Min Temperature 69 °F 76 °F 69 °F (2007)
Cooling Degree Days 18    
Growing Degree Days 32 (Base 50)    
Moisture  
Dew Point 62 °F    
Average Humidity 45    
Maximum Humidity 78    
Minimum Humidity 24    
Precipitation  
Precipitation 0.00 in - - ()
Sea Level Pressure  
Sea Level Pressure 29.84 in    
Wind  
Wind Speed 8 mph ()    
Max Wind Speed 15 mph    
Max Gust Speed -    
Visibility 7.2 miles    
Events      
Averages and records for this station are not official NWS values.
T = Trace of Precipitation, MM = Missing Value Source: Averaged Metar Reports

Daily Weather History Graph

Daily Weather History Graph

Search for Another Location

Airport or City:

Trip Planner

Search our weather history database for the weather conditions in past years. The results will help you decide how hot, cold, wet, or windy it might be!

Date:

Astronomy

Mar. 17, 2013 Rise Set
Actual Time 5:47 AM CST 5:52 PM CST
Civil Twilight 5:26 AM CST 6:14 PM CST
Nautical Twilight 5:02 AM CST 6:38 PM CST
Astronomical Twilight 4:38 AM CST 7:02 PM CST
Moon 9:58 AM CST (3/17) 10:53 PM CST (3/17)
Length of Visible Light 12h 47m
Length of Day
12h 05m
Waxing Crescent, 32% of the Moon is Illuminated
Mar 17
Waxing Crescent
Mar 19
First Quarter
Mar 27
Full
Apr 2
Last Quarter
Apr 10
New

Hourly Weather History & Observations

Time (CST) Temp. Heat Index Dew Point Humidity Pressure Visibility Wind Dir Wind Speed Gust Speed Precip Events Conditions
6:00 AM 69.8 °F - 62.6 °F 78% 29.86 in - SE 8.1 mph - N/A   Clear
7:00 AM 71.6 °F - 62.6 °F 73% 29.89 in - Calm Calm - N/A   Clear
8:00 AM 80.6 °F 81.8 °F 62.6 °F 54% 29.90 in - NNE 8.1 mph - N/A   Clear
9:00 AM 86.0 °F 85.4 °F 59.0 °F 40% 29.91 in - East 13.8 mph - N/A   Clear
10:00 AM 89.6 °F 88.9 °F 59.0 °F 36% 29.90 in - ENE 13.8 mph - N/A   Clear
11:00 AM 91.4 °F 90.7 °F 59.0 °F 34% 29.87 in - ENE 13.8 mph - N/A   Clear
12:00 PM 93.2 °F 93.3 °F 60.8 °F 34% 29.85 in - ENE 15.0 mph - N/A   Clear
1:00 PM 95.0 °F 94.4 °F 59.0 °F 30% 29.81 in 6.2 mi East 15.0 mph - N/A   Partly Cloudy
2:00 PM 95.0 °F 94.4 °F 59.0 °F 30% 29.80 in 6.2 mi East 10.4 mph - N/A   Partly Cloudy
3:00 PM 94 °F - 61 °F 24% 29.79 in 12 mi ENE 11.5 mph - -   Scattered Clouds
3:00 PM 93.2 °F 93.3 °F 60.8 °F 34% 29.78 in 6.2 mi ENE 11.5 mph - N/A   Partly Cloudy
4:00 PM 91.4 °F 92.1 °F 62.6 °F 38% 29.77 in 6.2 mi NE 12.7 mph - N/A   Scattered Clouds
5:00 PM 91.4 °F 91.4 °F 60.8 °F 36% 29.78 in 6.2 mi WNW 6.9 mph - N/A   Scattered Clouds
6:00 PM 87 °F - 62 °F 32% 29.82 in 12 mi West 9.2 mph - -   Partly Cloudy
6:00 PM 86.0 °F 86.1 °F 60.8 °F 43% 29.80 in 6.2 mi West 9.2 mph - N/A   Scattered Clouds
7:00 PM 82.4 °F 83.4 °F 62.6 °F 51% 29.82 in 6.2 mi West 4.6 mph - N/A   Scattered Clouds
8:00 PM 80.6 °F 82.7 °F 66.2 °F 61% 29.85 in 6.2 mi NW 3.5 mph - N/A   Scattered Clouds
9:00 PM 80.6 °F 82.7 °F 66.2 °F 61% 29.87 in 6.2 mi NNE 3.5 mph - N/A   Scattered Clouds
10:00 PM 78.8 °F - 66.2 °F 65% 29.88 in 6.2 mi NE 4.6 mph - N/A   Scattered Clouds